Location: Asni�res
(49.1337°N, 2.3555°E)
Time: 00:36:24
(UTC+00:00)

Cosmos 1470 - Pass Details

Date: 16 October 2021
Orbit: 519 x 541 km, 82.5° (Epoch: 06 December)

Event Time Altitude Azimuth Distance (km) Brightness Sun altitude
Rises 17:55:39 0° 202° (SSW) 2,691 6.7 -10.1°
Reaches altitude 10° 17:57:51 10° 208° (SSW) 1,804 5.9 -10.5°
Maximum altitude 18:01:42 49° 283° (WNW) 709 3.9 -11.1°
Drops below altitude 10° 18:05:36 10° 360° (N) 1,817 5.5 -11.7°
Sets 18:07:49 0° 6° (N) 2,712 6.3 -12.1°
